Total_Precipitation_Accumulation
0.00 0.00 0.09 0.05 0.06 0.05 0.08 0.08 0.16 0.28 0.40 0.38 0.40 0.35 0.22 0.15 0.15 0.20 0.15 0.10 0.10 0.05 0.03 0.02 0.02 0.00 0.00 0.01 0.00 0.02 0.02 0.01 0.01 0.00 0.01 0.00 0.01 0.01 0.01 0.02 0.00 0.00 0.00
0.11 0.01 0.13 0.09 0.04 0.03 0.08 0.06 0.09 0.18 0.33 0.32 0.27 0.31 0.25 0.19 0.28 0.37 0.21 0.15 0.18 0.15 0.07 0.07 0.09 0.02 0.04 0.01 0.00 0.01 0.00 0.03 0.01 0.03 0.03 0.02 0.07 0.03 0.05 0.04 0.00 0.00 0.00
0.40 0.41 0.38 0.16 0.03 0.01 0.00 0.01 0.08 0.13 0.13 0.16 0.27 0.47 0.39 0.30 0.38 0.29 0.32 0.27 0.20 0.25 0.19 0.13 0.15 0.11 0.15 0.08 0.07 0.06 0.02 0.07 0.04 0.07 0.05 0.02 0.08 0.04 0.04 0.00 0.00 0.00 0.00
0.49 0.36 0.36 0.25 0.08 0.04 0.01 0.01 0.03 0.10 0.06 0.10 0.14 0.30 0.40 0.34 0.20 0.31 0.44 0.28 0.20 0.32 0.34 0.24 0.19 0.12 0.25 0.26 0.16 0.17 0.08 0.07 0.05 0.04 0.03 0.05 0.05 0.05 0.16 0.03 0.00 0.00 0.00
0.99 0.68 0.56 0.43 0.32 0.33 0.31 0.19 0.13 0.16 0.12 0.09 0.08 0.26 0.43 0.43 0.18 0.26 0.41 0.30 0.30 0.17 0.24 0.24 0.24 0.36 0.31 0.33 0.26 0.25 0.13 0.10 0.06 0.02 0.00 0.01 0.03 0.03 0.02 0.03 0.01 0.00 0.00
0.71 0.88 0.77 0.62 0.47 0.63 0.50 0.51 0.50 0.59 0.47 0.29 0.25 0.19 0.29 0.20 0.33 0.42 0.26 0.39 0.40 0.28 0.31 0.25 0.22 0.32 0.43 0.29 0.09 0.08 0.14 0.18 0.15 0.10 0.01 0.04 0.05 0.06 0.04 0.04 0.00 0.00 0.00
0.48 0.42 0.58 0.57 0.52 0.42 0.51 0.68 0.74 0.77 0.70 0.69 0.57 0.53 0.48 0.26 0.18 0.11 0.11 0.18 0.43 0.47 0.38 0.32 0.33 0.20 0.22 0.17 0.13 0.05 0.10 0.14 0.15 0.11 0.06 0.10 0.08 0.16 0.09 0.06 0.07 0.06 0.02
0.24 0.17 0.23 0.40 0.56 0.54 0.29 0.47 0.69 0.66 0.66 0.70 0.57 0.54 0.30 0.22 0.13 0.11 0.16 0.21 0.31 0.37 0.41 0.31 0.26 0.21 0.15 0.07 0.02 0.01 0.04 0.09 0.12 0.05 0.07 0.07 0.05 0.05 0.02 0.03 0.01 0.01 0.01
0.41 0.28 0.30 0.36 0.33 0.52 0.44 0.23 0.24 0.46 0.50 0.49 0.40 0.35 0.16 0.07 0.08 0.14 0.38 0.36 0.35 0.44 0.52 0.42 0.30 0.20 0.19 0.14 0.04 0.02 0.01 0.02 0.02 0.00 0.00 0.00 0.00 0.00 0.00 0.00 0.01 0.11 0.06
0.39 0.36 0.24 0.29 0.29 0.30 0.25 0.20 0.11 0.13 0.16 0.18 0.15 0.08 0.10 0.08 0.04 0.10 0.25 0.36 0.30 0.29 0.20 0.20 0.19 0.12 0.20 0.16 0.05 0.02 0.01 0.03 0.03 0.01 0.01 0.00 0.00 0.00 0.00 0.00 0.02 0.05 0.04
1.34 1.08 0.58 0.44 0.40 0.36 0.31 0.27 0.13 0.03 0.01 0.02 0.03 0.02 0.02 0.03 0.03 0.04 0.05 0.08 0.11 0.05 0.04 0.02 0.01 0.06 0.08 0.09 0.06 0.03 0.00 0.00 0.00 0.00 0.00 0.00 0.00 0.00 0.00 0.00 0.01 0.01 0.03
1.35 1.50 1.92 1.28 0.83 0.46 0.24 0.12 0.04 0.00 0.01 0.00 0.00 0.00 0.00 0.00 0.01 0.01 0.03 0.03 0.02 0.01 0.01 0.00 0.01 0.01 0.03 0.03 0.02 0.01 0.00 0.00 0.00 0.00 0.00 0.00 0.00 0.00 0.00 0.00 0.00 0.02 0.01
0.37 0.43 0.60 0.62 0.50 0.44 0.25 0.10 0.05 0.03 0.01 0.01 0.00 0.00 0.00 0.00 0.00 0.00 0.00 0.00 0.00 0.00 0.00 0.00 0.00 0.00 0.00 0.00 0.00 0.00 0.00 0.00 0.00 0.00 0.00 0.01 0.01 0.00 0.00 0.01 0.01 0.01 0.00
0.17 0.26 0.34 0.39 0.35 0.27 0.22 0.14 0.06 0.03 0.01 0.01 0.01 0.00 0.00 0.00 0.00 0.00 0.00 0.00 0.00 0.00 0.00 0.00 0.00 0.00 0.00 0.00 0.00 0.00 0.00 0.00 0.00 0.00 0.00 0.00 0.00 0.00 0.00 0.01 0.01 0.03 0.01
0.04 0.06 0.09 0.12 0.17 0.15 0.16 0.12 0.07 0.04 0.04 0.02 0.02 0.01 0.00 0.00 0.00 0.00 0.00 0.00 0.00 0.00 0.00 0.00 0.00 0.00 0.00 0.00 0.00 0.00 0.00 0.00 0.00 0.00 0.00 0.00 0.00 0.00 0.00 0.00 0.01 0.01 0.01
0.01 0.02 0.04 0.03 0.03 0.04 0.08 0.10 0.07 0.06 0.05 0.01 0.02 0.02 0.00 0.00 0.00 0.00 0.00 0.00 0.00 0.00 0.00 0.00 0.00 0.00 0.00 0.00 0.00 0.00 0.00 0.00 0.00 0.00 0.00 0.00 0.01 0.00 0.01 0.01 0.01 0.01 0.02
0.00 0.00 0.01 0.01 0.01 0.01 0.01 0.00 0.00 0.00 0.01 0.01 0.01 0.01 0.01 0.00 0.00 0.00 0.00 0.00 0.00 0.00 0.00 0.00 0.00 0.00 0.00 0.00 0.00 0.00 0.00 0.00 0.00 0.00 0.01 0.01 0.01 0.01 0.01 0.01 0.01 0.02 0.02
0.00 0.00 0.00 0.00 0.00 0.00 0.00 0.00 0.00 0.00 0.00 0.00 0.00 0.00 0.00 0.00 0.00 0.00 0.00 0.00 0.00 0.00 0.00 0.00 0.00 0.00 0.00 0.00 0.00 0.00 0.00 0.00 0.00 0.00 0.00 0.01 0.00 0.00 0.00 0.00 0.00 0.01 0.01
0.00 0.00 0.00 0.00 0.00 0.00 0.00 0.00 0.00 0.00 0.00 0.00 0.00 0.00 0.00 0.00 0.00 0.00 0.00 0.00 0.00 0.00 0.00 0.00 0.00 0.00 0.00 0.00 0.00 0.00 0.00 0.00 0.00 0.00 0.01 0.00 0.00 0.00 0.00 0.00 0.00 0.00 0.00
0.00 0.00 0.00 0.00 0.00 0.00 0.00 0.00 0.00 0.00 0.00 0.00 0.00 0.00 0.00 0.00 0.00 0.00 0.00 0.00 0.00 0.00 0.00 0.00 0.00 0.00 0.00 0.00 0.00 0.00 0.00 0.00 0.00 0.00 0.00 0.00 0.00 0.00 0.00 0.00 0.00 0.00 0.00
0.00 0.00 0.00 0.00 0.00 0.00 0.00 0.00 0.00 0.00 0.00 0.00 0.00 0.00 0.00 0.00 0.00 0.00 0.00 0.00 0.00 0.00 0.00 0.00 0.00 0.00 0.00 0.00 0.00 0.00 0.00 0.00 0.00 0.00 0.01 0.01 0.01 0.01 0.01 0.01 0.00 0.00 0.00
0.00 0.00 0.00 0.00 0.00 0.00 0.00 0.00 0.00 0.00 0.00 0.00 0.00 0.00 0.00 0.00 0.00 0.00 0.00 0.00 0.00 0.00 0.00 0.00 0.00 0.00 0.00 0.00 0.00 0.00 0.00 0.00 0.00 0.01 0.01 0.01 0.01 0.01 0.01 0.01 0.01 0.01 0.01
0.00 0.00 0.00 0.00 0.00 0.00 0.00 0.00 0.00 0.00 0.00 0.00 0.00 0.00 0.00 0.00 0.00 0.00 0.00 0.00 0.00 0.00 0.00 0.00 0.00 0.00 0.00 0.00 0.00 0.00 0.00 0.01 0.01 0.02 0.02 0.02 0.01 0.01 0.02 0.02 0.01 0.01 0.01
0.00 0.00 0.00 0.00 0.00 0.00 0.00 0.00 0.00 0.00 0.00 0.00 0.00 0.00 0.00 0.00 0.00 0.00 0.00 0.00 0.00 0.00 0.00 0.00 0.00 0.00 0.00 0.00 0.00 0.00 0.01 0.01 0.01 0.01 0.01 0.02 0.02 0.03 0.02 0.02 0.01 0.02 0.01
0.00 0.00 0.00 0.00 0.00 0.00 0.00 0.00 0.00 0.00 0.00 0.00 0.00 0.00 0.00 0.00 0.00 0.00 0.00 0.00 0.00 0.00 0.00 0.00 0.00 0.00 0.00 0.00 0.00 0.00 0.01 0.01 0.00 0.00 0.00 0.01 0.00 0.00 0.01 0.00 0.00 0.00 0.00
0.02 0.01 0.01 0.00 0.00 0.00 0.00 0.00 0.00 0.00 0.00 0.00 0.00 0.00 0.00 0.00 0.00 0.00 0.00 0.00 0.00 0.00 0.00 0.00 0.00 0.00 0.00 0.00 0.00 0.01 0.01 0.00 0.00 0.00 0.00 0.00 0.00 0.00 0.00 0.00 0.00 0.00 0.00